Location: Colonia Mina de C?rbuni
(46.1667°N, 22.7167°E)
Time: 21:48:41
(UTC+00:00)

BlueWalker 3 - Pass Details

Date: 28 February 2024
Orbit: 485 x 495 km, 53.2° (Epoch: 22 April)

Event Time Altitude Azimuth Distance (km) Brightness Sun altitude
Rises 18:34:47 0° 301° (WNW) 2,562 6.8 -25.1°
Reaches altitude 10° 18:36:58 10° 304° (NW) 1,676 5.5 -25.5°
Enters shadow 18:39:26 37° 318° (NW) 767 3.2 -25.9°
